Regional Weather Roundup
Issued by NWS

Home | Current Version | Previous Version | Graphics & Text | Print | Product List | Glossary On
Versions: 1 2 3 4 5 6 7 8 9 10 11 12 13 14 15 16 17 18 19 20 21 22 23 24 25 26 27 28 29 30 31 32 33 34 35 36 37 38 39 40 41 42 43 44 45 46 47 48 49 50
000
ASUS45 KBOU 251507
RWRCO

WEATHER ROUNDUP FOR COLORADO
NATIONAL WEATHER SERVICE DENVER/BOULDER CO
900 AM MDT SAT APR 25 2015

NOTE: "FAIR" INDICATES FEW OR NO CLOUDS BELOW 12000 FEET WITH NO
SIGNIFICANT WEATHER AND/OR OBSTRUCTIONS TO VISIBILITY.

COZ001>005-013-030-031-251600-
...NORTHWEST COLORADO...

CITY           SKY/WX    TMP DP  RH WIND       PRES   REMARKS
CRAIG          LGT RAIN  39  36  89 W6        29.86R
HAYDEN         CLOUDY    37  34  87 NW10      29.85S
MEEKER         LGT RAIN  38  35  89 SW10      29.88R FOG
MOUNT WERNER   NOT AVBL
STEAMBOAT SPGS CLOUDY    42  33  69 CALM      29.84S
WALDEN         CLOUDY    37  28  70 S10G16    29.86R
$$

COZ006>008-011-251600-
...WEST CENTRAL VALLEYS...

CITY           SKY/WX    TMP DP  RH WIND       PRES   REMARKS
GRAND JUNCTION RAIN      41  41 100 NW13      29.87R FOG
MONTROSE       CLOUDY    50  34  54 CALM      29.88S
EAGLE          MOSUNNY   43  30  61 CALM      29.88F
RIFLE          CLOUDY    45  34  65 W10       29.84R
DELTA          CLOUDY    51  38  62 MISG      29.86S
NUCLA          CLOUDY    48  36  61 S8        29.92S
$$

COZ017>023-064>068-251600-
...SOUTHWEST COLORADO...

CITY           SKY/WX    TMP DP  RH WIND       PRES   REMARKS
DURANGO        PTSUNNY   42  38  85 E6        29.96S
CORTEZ         PTSUNNY   49  40  71 NE5       29.93S
PAGOSA SPRINGS CLOUDY    39  37  91 CALM      29.99S
TELLURIDE      CLOUDY    38  32  79 CALM      29.97S
WOLF CREEK PAS NOT AVBL
$$

COZ009-010-012-014-032>034-037-058>063-251600-
...CENTRAL COLORADO...

CITY           SKY/WX    TMP DP  RH WIND       PRES   REMARKS
ASPEN          PTSUNNY   44  28  53 SE6       29.86F
BUENA VISTA    PTSUNNY   42  26  52 S5        29.90F
COPPER MTN     PTSUNNY   32  19  59 S8        29.99S WCI  25
BERTHOUD PASS  PTSUNNY   23  16  74 NW17G24   29.99S WCI   9
COTTONWOOD PAS PTSUNNY   37  27  65 SE6       29.94S
GUNNISON       MOSUNNY   36  28  75 CALM      29.97F
KREMMLING      PTSUNNY   41  28  60 CALM      29.88F
LEADVILLE      PTSUNNY   33  18  53 W3        29.92F
MONARCH PASS   FOG       27  23  86 MISG      30.10R VSB<1/4
SALIDA         PTSUNNY   51  25  36 S13G22    29.96S
SUNLIGHT       CLOUDY    32  32 100 CALM      29.97F
WILKERSON PASS MOSUNNY   32  21  64 SW10      29.98R WCI  24
$$

COZ069>075-251600-
...SAN LUIS VALLEY/SANGRE DE CRISTO MOUNTAINS...

CITY           SKY/WX    TMP DP  RH WIND       PRES   REMARKS
ALAMOSA        MOSUNNY   43  30  60 E3        29.94S
LA VETA PASS   MOSUNNY   34  27  75 S10G23    29.98S WCI  26
SAGUACHE       SUNNY     41  27  56 W6        29.95S
$$

COZ035-036-038>040-251600-
...NORTHERN COLORADO FRONT RANGE...

CITY           SKY/WX    TMP DP  RH WIND       PRES   REMARKS
DENVER INTL AP PTSUNNY   58  30  34 SW9       29.74S
DMNS CITY PARK   N/A     58  26  29 S2G9      29.73F
AURORA         NOT AVBL
FRONT RANGE AP MOSUNNY   59  30  33 SW7       29.75S
ERIE MUNI ARPT MOSUNNY   55  35  46 CALM      29.72F
BOULDER MUN AP MOSUNNY   55  32  41 NE5       29.72S
CENTENNIAL     PTSUNNY   56  26  31 SW7       29.76S
BROOMFIELD     MOSUNNY   57  30  35 SE5       29.74F
FORT COLLINS   MOSUNNY   54  34  47 SE9       29.74F
LONGMONT       MOSUNNY   57  38  49 NE5       29.74S
$$

COZ041-046-047-076>085-087-088-251600-
...PIKES PEAK/PALMER DIVIDE AND SOUTHERN FOOTHILLS...

CITY           SKY/WX    TMP DP  RH WIND       PRES   REMARKS
COLO. SPRINGS  PTSUNNY   56  21  25 CALM      29.80S
A. F. ACADEMY  NOT AVBL
ELLICOTT       SUNNY    N/A N/A N/A CALM      29.78F
FALCON         SUNNY     56  19  23 W12       29.82S
FORT CARSON    NOT AVBL
LIMON          SUNNY     55  36  48 CALM      29.77R
MONUMENT HILL  SUNNY     54  25  32 SW8       29.80F
TRINIDAD       SUNNY     58  26  29 W23       29.82S
$$

COZ042>045-048>051-090-091-251600-
...NORTHEAST COLORADO...

CITY           SKY/WX    TMP DP  RH WIND       PRES   REMARKS
GREELEY ARPT   SUNNY     57  37  47 SE3       29.74F
AKRON          SUNNY     56  38  50 NW10      29.73R
BURLINGTON     SUNNY     62  39  42 NW18      29.72R
WRAY           SUNNY     59  46  60 N10       29.71S
STERLING       SUNNY     54  39  58 CALM      29.72R
HOLYOKE        SUNNY     57  46  67 N13       29.71S
FORT MORGAN    SUNNY     54  35  49 SW3       29.75R
$$

COZ086-089-092>099-251600-
...SOUTHEAST COLORADO...

CITY           SKY/WX    TMP DP  RH WIND       PRES   REMARKS
PUEBLO         SUNNY     60  32  34 W14       29.75F
LA JUNTA       SUNNY     59  33  37 W9        29.75S
LAMAR          SUNNY     57  35  43 W13       29.73S
SPRINGFIELD      N/A     64  28  25 NW17      29.75S
$$



USA.gov is the U.S. government's official web portal to all federal, state and local government web resources and services.